Location: Foulognes
(49.1413°N, 0.8183°W)
Time: 02:31:17
(UTC+00:00)

Cosmos 2058 - Pass Details

Date: 21 October 2019
Orbit: 563 x 583 km, 82.5° (Epoch: 12 November)

Event Time Altitude Azimuth Distance (km) Brightness Sun altitude
Rises 19:03:56 0° 349° (NNW) 2,821 6.7 -20.5°
Reaches altitude 10° 19:06:08 10° 348° (NNW) 1,916 5.8 -20.9°
Maximum altitude 19:10:22 79° 262° (W) 601 3.0 -21.6°
Enters shadow 19:12:58 23° 178° (S) 1,271 4.5 -22.0°
